Regional Weather Roundup
Issued by NWS

Home | Current Version | Previous Version | Text Only | Print | Product List | Glossary On
Versions: 1 2 3 4 5 6 7 8 9 10 11 12 13 14 15 16 17 18 19 20 21 22 23 24 25 26 27 28 29 30 31 32 33 34 35 36 37 38 39 40 41 42 43 44 45 46 47 48 49 50
000
ASUS43 KDTX 251010
RWRMI
MICHIGAN HOURLY REGIONAL WEATHER ROUNDUP
NATIONAL WEATHER SERVICE DETROIT/PONTIAC MI
600 AM EDT SAT APR 25 2015

NOTE: "FAIR" INDICATES FEW OR NO CLOUDS BELOW 12,000 FEET WITH NO
SIGNIFICANT WEATHER AND/OR OBSTRUCTION TO VISIBILITY.

MIZ047>049-052>055-059>063-066>070-074>076-081>083-251100-
SOUTHEAST LOWER MICHIGAN

CITY           SKY/WX    TMP DP  RH WIND       PRES   REMARKS
ADRIAN         CLOUDY    40  38  93 E8        29.91F
ALMA           CLOUDY    37  23  58 E7        29.94F
ANN ARBOR      CLOUDY    40  37  89 E5        29.93F
BAD AXE        PTCLDY    28  24  84 CALM      29.99F
DETROIT CITY   CLOUDY    38  28  67 E5        29.97F
DETROIT        CLOUDY    42  35  76 NE5       29.96F
FLINT          CLOUDY    39  20  46 SE7       29.96F
GROSSE ILE     CLOUDY    41  37  87 E3        29.94F
HILLSDALE      CLOUDY    40  39  95 E9        29.87F
HOWELL         CLOUDY    40  37  88 E6        29.92F

CITY           SKY/WX    TMP DP  RH WIND       PRES   REMARKS
JACKSON        CLOUDY    40  37  89 SE6       29.89F
LAMBERTVILLE   CLOUDY    43  37  81 E5        29.92F
LANSING        CLOUDY    40  37  89 NE6       29.91F
LAPEER         NOT AVBL
MASON          CLOUDY    40  35  83 E6        29.91F
MONROE         CLOUDY    41  39  93 CALM      29.92F
PONTIAC        CLOUDY    37  22  54 E6        29.93F
PORT HOPE        N/A     28  24  85 S3        29.98F
PORT HURON     CLOUDY    34  30  86 NE3       29.98F
TRI CITIES     MOCLDY    35  23  61 E7        29.97F
YPSILANTI      CLOUDY    43  37  79 E7        29.95F
$$
MIZ043>046-050>051-056>058-064>065-071>073-077>080-251100-
SOUTHWEST LOWER MICHIGAN

CITY           SKY/WX    TMP DP  RH WIND       PRES   REMARKS
BATTLE CREEK   CLOUDY    41  37  86 E8        29.88F
BENTON HARBOR  CLOUDY    43  37  79 E12G21    29.83F
BIG RAPIDS     CLOUDY    37  22  55 E6        29.91F
COLDWATER      CLOUDY    41  36  82 E6        29.86F
HOLLAND        CLOUDY    44  38  79 E12       29.87F
GRAND RAPIDS   CLOUDY    40  35  83 E8        29.89F
KALAMAZOO      CLOUDY    42  37  82 E7        29.86F
MARSHALL       CLOUDY    38  37  93 E5        29.88F
MUSKEGON       MOCLDY    43  36  76 E9        29.89S
$$
MIZ016>042-251100-
NORTHERN LOWER MICHIGAN

CITY           SKY/WX    TMP DP  RH WIND       PRES   REMARKS
ALPENA         CLEAR     22  17  81 CALM      30.00F
BEAVER ISLAND  CLEAR     24  21  91 CALM      30.00R
BELLAIRE       PTCLDY    32  22  65 CALM      29.98F
CADILLAC       MOCLDY    32  23  69 E6        29.92F
CHARLEVOIX     CLEAR     30  23  75 CALM      30.01F
FRANKFORT      PTSUNNY   39  20  45 E5        29.94S
GAYLORD        PTCLDY    28  17  63 CALM      29.96F
GRAYLING       MOCLDY    30  22  72 CALM      29.97S
HARBOR SPRINGS CLEAR     24  19  80 CALM      29.99S
HOUGHTON LAKE  CLOUDY    31  22  69 E5        29.95F
MANISTEE       PTCLDY    36  21  55 E7        29.93S
OSCODA         CLEAR     20  17  89 CALM      30.00S
PELLSTON       CLEAR     18  15  88 CALM      30.00F
TRAVERSE CITY  CLOUDY    37  25  61 NE5       29.96S
$$
MIZ007>008-015-251100-
EASTERN UPPER MICHIGAN

CITY           SKY/WX    TMP DP  RH WIND       PRES   REMARKS
KINROSS        CLEAR     21  19  93 CALM      30.00S
MACKINAC ISLAN CLEAR     28  23  82 NE7       29.99F
NEWBERRY       CLEAR     24  21  87 N6        29.99S
S. S. MARIE    CLEAR     26  20  77 CALM      30.00S
$$
MIZ004>006-011>014-085-251100-
CENTRAL UPPER MICHIGAN

CITY           SKY/WX    TMP DP  RH WIND       PRES   REMARKS
MANISTIQUE     CLEAR     24  17  75 CALM      30.00R
ESCANABA       PTCLDY    30  25  80 NE3       30.00R
MENOMINEE      CLOUDY    37  21  52 E12       29.96S
SAWYER-GWINN   CLEAR     26  20  78 CALM      29.98R
$$
MIZ001>003-009>011-084-251100-
WESTERN UPPER MICHIGAN

CITY           SKY/WX    TMP DP  RH WIND       PRES   REMARKS
IRON MOUNTAIN  CLOUDY    34  23  64 CALM      29.96R
HOUGHTON       CLOUDY    30  24  78 E10       29.98S
COPPER HARBOR    N/A     26  23  88 SW3       30.03R
IRONWOOD       CLOUDY    37  28  70 E3        29.92R
$$

ABBREVIATIONS USED IN REMARKS
   TC - TEMPERATURE IN CELSIUS
  WCI - WIND CHILL INDEX
   HX - HEAT INDEX
  VSB - VISIBILITY




USA.gov is the U.S. government's official web portal to all federal, state and local government web resources and services.